Location: Holmes Observatory
(37.1039°N, 122.0513°W)
Time: 14:24:06
(UTC-07:00)

Daily predictions for brighter satellites

Satellite Brightness Start Highest point End
(mag) Time Altitude Azimuth Time Altitude Azimuth Time Altitude Azimuth
Cosmos 1452 Rocket 4.2 20:13:29 10° SSE 20:18:06 32° E 20:22:44 10° NE
Cosmos 1378 Rocket 3.6 20:14:32 10° N 20:18:59 82° E 20:23:23 10° S
Tiangong 1 2.6 20:18:46 10° WNW 20:21:16 29° N 20:23:45 10° NE
Abrixas rocket 4.4 20:19:31 10° W 20:22:20 26° NNW 20:25:11 10° NE
HJ-1C 3.6 20:20:05 10° S 20:23:30 81° WSW 20:26:56 10° NNW
Cosmos 1812 2.7 20:19:40 10° N 20:23:31 63° E 20:27:21 10° SSE
SJ-6B 3.2 20:20:53 10° S 20:24:52 70° WSW 20:28:57 10° NNW
Meteor 1-14 Rocket 4.4 20:20:34 10° S 20:26:16 85° W 20:31:54 10° N
BREEZE-M DEB (TANK) 3.6 20:24:41 10° NW 20:27:42 49° NE 20:38:31 10° ESE
Cosmos 407 Rocket 3.8 20:22:44 10° N 20:28:00 54° ENE 20:33:10 10° SSE
Cosmos 921 Rocket 2.9 20:24:21 10° S 20:28:26 58° ESE 20:32:33 10° NNE
Meteor 1-25 Rocket 4.3 20:22:50 10° S 20:28:40 79° E 20:34:30 10° NNE
Cosmos 1190 Rocket 4.1 20:24:38 10° N 20:29:52 62° ENE 20:35:05 10° SSE
Cosmos 1461 3.7 20:26:46 10° NW 20:31:10 57° WSW 20:35:41 10° SSE
ATLAS 2AS CENTAUR R/B 4.1 20:26:35 10° SSE 20:31:42 20° ESE 20:37:01 10° ENE
Sich 1 Rocket 4.3 20:27:55 10° SSW 20:32:14 57° W 20:36:34 10° N
Cosmos 2360 4.2 20:27:32 10° S 20:33:09 66° ESE 20:38:48 10° NNE
Cosmos 839 Rocket 4.1 20:29:56 10° S 20:36:10 56° ESE 20:42:12 10° NE
Cosmos 1975 Rocket 3.1 20:31:47 10° N 20:36:14 67° E 20:40:38 10° SSE
Cosmos 1939 Rocket 3.9 20:34:39 10° SE 20:38:03 27° ENE 20:41:24 10° NNE
NOSS 3-1 (A) 3.5 20:32:25 10° SW 20:38:05 81° WNW 20:44:27 10° NNE
Meteor 1-18 Rocket 4.3 20:33:10 10° N 20:39:07 79° E 20:45:03 10° SSE
Cosmos 2297 Rocket 3.5 20:34:38 10° NW 20:39:55 41° WSW 20:45:10 10° S
CZ-4C R/B 3.2 20:33:30 10° NW 20:40:51 74° WSW 20:48:52 10° SSE
USA 186 2.0 20:37:55 10° SSE 20:41:09 56° ENE 20:44:28 10° N
DELTA 2 R/B (1) 3.7 20:36:34 10° WNW 20:42:11 76° N 20:47:30 12° E
Cosmos 676 Rocket 4.3 20:40:45 10° N 20:45:56 51° ENE 20:51:03 10° SE
Helios 1B rocket 3.7 20:43:09 10° NE 20:46:18 21° E 20:49:06 11° SE
Okean 1 3.3 20:43:23 10° N 20:47:19 61° E 20:51:15 10° SSE
Cosmos 1536 4.3 20:46:54 14° SE 20:48:59 19° E 20:51:55 10° NE
Iridium 30 4.1 20:47:24 10° S 20:50:16 79° E 20:53:44 10° N
Cosmos 2026 Rocket 4.1 20:44:43 10° S 20:51:02 90° WNW 20:57:26 10° N
Cosmos 1655 Rocket 4.0 20:45:11 10° S 20:51:22 69° E 20:57:39 10° NNE
Lacrosse 5 rocket 2.2 20:50:15 10° NNW 20:53:34 31° NE 20:55:56 17° E
Cosmos 44 Rocket 3.7 20:49:30 10° NNW 20:54:05 46° NE 20:57:33 17° SE
Cosmos 1428 Rocket 4.5 20:47:54 10° S 20:54:07 67° E 21:00:19 10° NNE
Spot 2 Rocket 3.6 20:53:47 10° SSE 20:58:54 84° W 21:04:01 10° NNW
Cosmos 1441 Rocket 3.9 20:56:03 10° NNW 20:59:42 52° W 21:03:20 10° S
Cosmos 1536 Rocket 4.2 20:56:25 10° NNE 21:00:23 35° ENE 21:02:53 19° SE
SeaSat 1 2.6 20:56:19 10° NNE 21:01:15 77° WNW 21:06:10 10° SSW
Cosmos 2322 Rocket 2.5 20:56:52 10° S 21:02:15 45° ESE 21:07:39 10° NE
Cosmos 1140 Rocket 3.7 21:00:39 10° N 21:05:46 53° ENE 21:09:25 19° SE
Okean 2 Rocket 3.8 21:02:24 10° SSW 21:06:48 57° W 21:11:15 10° N
Cosmos 2263 Rocket 3.5 21:02:27 10° N 21:07:04 25° ENE 21:09:45 18° E
Meteor 1-29 4.0 21:05:01 10° NE 21:07:52 25° E 21:07:57 25° E
Cosmos 1954 Rocket 4.0 21:03:41 10° NNW 21:08:59 69° ENE 21:13:07 17° SSE
SL-16 R/B 2.3 21:06:02 10° S 21:11:31 54° ESE 21:17:02 10° NNE
ERBS 3.7 21:08:58 10° WSW 21:12:17 42° NW 21:15:37 10° NNE
H-2A R/B 3.9 21:12:37 13° ENE 21:13:41 14° ENE 21:16:08 10° NE
Cosmos 614 Rocket 4.1 21:10:53 10° N 21:15:54 55° ENE 21:18:51 24° SE
NOSS 2-3 (C) 4.0 21:11:36 10° S 21:15:59 45° ESE 21:20:52 10° NE
Helios 1A 3.2 21:15:15 25° SE 21:17:29 51° ENE 21:21:37 10° N
Lacrosse 5 2.5 21:18:36 10° S 21:23:02 31° ESE 21:27:29 10° ENE
Envisat 3.6 21:22:53 10° S 21:27:52 57° W 21:32:52 10° NNW
ERS-1 Rocket 3.5 21:26:09 29° ESE 21:27:56 39° ENE 21:32:36 10° N
YAOGAN 6 2.4 21:29:44 35° SSE 21:31:08 89° ENE 21:34:42 10° N
Meteor 1-13 Rocket 4.3 21:28:14 10° N 21:34:13 86° W 21:38:55 17° S
Meteor 1-5 Rocket 4.2 21:32:01 23° SSE 21:35:13 54° E 21:40:23 10° NNE
Uosat 12 SS-18 rocket 4.4 21:30:55 10° SSW 21:35:34 85° WNW 21:41:16 10° NNE
Cosmos 2360 Rocket 2.7 21:37:16 33° ESE 21:37:38 34° ESE 21:42:38 10° NE
Cosmos 1980 Rocket 4.2 21:34:01 10° WSW 21:38:52 29° WNW 21:43:43 10° N
BREEZE-M DEB (TANK) 4.0 21:38:54 10° W 21:41:27 20° NW 21:42:55 12° NNE
MetOp-B 4.4 21:43:02 38° ESE 21:44:34 50° ENE 21:49:43 10° N
Atlas Centaur 2 3.0 21:37:11 10° WSW 21:44:43 50° S 21:47:03 36° SE
Cosmos 44 3.5 21:40:58 10° NW 21:45:20 59° WSW 21:47:04 35° S
Meteor 2-4 Rocket 3.6 21:40:27 10° N 21:46:00 85° E 21:48:54 30° SSE
Resurs 01 Rocket 4.2 21:46:12 10° SW 21:49:17 18° W 21:52:23 10° NW
GPS 2-05 Rocket1 3.3 21:47:16 10° W 21:49:50 48° WSW 21:49:50 48° WSW
CZ-4B DEB 3.4 21:52:13 46° NNW 21:52:13 46° NNW 21:54:23 10° NNW
Intelsat 5-1 Rocket 4.4 21:36:14 10° WSW 21:52:52 36° S 21:55:35 30° SSE
NOAA 11 4.1 21:52:10 39° SSE 21:54:19 81° ENE 21:59:51 10° N
ATLAS 3B R/B 3.8 21:49:02 10° NNW 21:54:46 29° NE 21:56:56 24° ENE
NOSS 2-3 (D) 3.8 21:50:59 10° SW 21:55:34 79° WNW 22:00:50 10° NNE
Cosmos 1110 Rocket 4.1 21:55:37 50° ESE 21:55:38 50° ESE 22:00:37 10° NNE
Okean 1 Rocket 2.9 21:55:44 51° S 21:56:49 90° ENE 22:01:12 10° N
Tiangong 1 3.0 21:54:45 10° NW 21:56:37 23° NNW 21:56:37 23° NNW
Okean 1-7 Rocket 4.0 21:53:45 10° N 21:57:45 45° ENE 21:57:45 45° ENE
Cosmos 2315 Rocket 4.0 21:57:29 10° N 22:03:42 65° E 22:05:19 48° SE
Cosmos 1850 Rocket 4.0 22:00:06 10° NNW 22:05:27 79° WSW 22:06:49 51° S
Cosmos 2266 Rocket 4.3 22:02:11 10° SSW 22:08:11 64° W 22:14:10 10° N
Nadezhda 2 Rocket 4.3 22:08:52 43° S 22:11:00 78° E 22:17:13 10° N
Cosmos 1331 Rocket 4.0 22:12:56 62° ENE 22:12:56 62° ENE 22:17:41 10° NNE
SPOT 1/Viking Rocket 3.9 22:14:28 48° ENE 22:14:28 48° ENE 22:19:21 10° N
Cosmos 1607 4.0 22:11:46 10° NNW 22:18:13 68° ENE 22:19:20 57° ESE
Terra 3.5 22:20:08 22° NE 22:20:08 22° NE 22:22:43 10° NNE
Cosmos 1025 Rocket 3.3 22:16:01 10° N 22:19:38 63° N 22:19:38 63° N
ATLAS 2AS CENTAUR R/B 3.0 22:14:06 10° SW 22:21:44 81° WNW 22:29:53 10° NNE
USA 245 3.9 22:21:41 77° SSE 22:22:04 86° ENE 22:26:54 10° N
DELTA 2 R/B (1) 4.0 22:23:08 10° WNW 22:28:15 50° SW 22:28:15 50° SW
BREEZE M DEB (TANK) 3.0 22:23:00 10° WSW 22:30:03 62° W 22:30:03 62° W
Lacrosse 5 rocket 3.3 22:29:34 10° WNW 22:31:38 21° W 22:31:38 21° W
SL-08 RB Rocket 4.1 22:35:42 62° NW 22:35:42 62° NW 22:39:36 10° NNW
Cosmos 1238 Rocket 3.9 22:38:19 10° N 22:45:07 81° E 22:45:16 80° ESE
Nimbus 7 Rocket 4.3 22:39:41 10° NNE 22:45:30 88° NNE 22:45:30 88° NNE
Cosmos 2278 Rocket 4.3 22:43:10 10° NNE 22:45:48 14° NE 22:45:48 14° NE
Cosmos 2322 Rocket 4.3 22:41:52 10° WSW 22:46:28 25° WNW 22:51:04 10° N
ARGOS 3.7 22:46:13 50° WSW 22:46:32 51° W 22:51:45 10° NNW
Cosmos 1932 4.4 22:43:29 10° NNW 22:49:59 81° WSW 22:50:03 81° SW
Cosmos 2263 Rocket 2.9 22:45:47 10° NW 22:51:10 44° WSW 22:51:27 44° WSW
H-2A R/B 2.4 22:53:16 59° WNW 22:53:16 59° WNW 22:57:34 10° NNW
SPOT 5 3.7 22:55:37 46° WNW 22:55:37 46° WNW 22:59:42 10° NNW
Cosmos 1844 Rocket 3.7 22:54:45 10° N 22:58:56 38° NNE 22:58:56 38° NNE
Aureole 3 Rocket 4.2 22:51:30 10° N 23:00:16 83° W 23:00:52 76° SSW
Cosmos 2322 4.3 23:02:12 52° W 23:02:45 54° WNW 23:08:18 10° NNE
Lacrosse 5 3.1 23:01:08 10° WSW 23:05:53 39° NW 23:10:39 10° NNE
Cosmos 2219 Rocket 4.0 23:12:32 21° NE 23:12:32 21° NE 23:14:21 10° NNE
COSMOS 2428 3.7 23:11:34 40° NNE 23:11:34 40° NNE 23:15:09 10° NNE
USA 238 DEB 3.8 23:14:08 10° NNW 23:20:40 77° NNW 23:20:40 77° NNW
USA 238 3.8 23:14:13 10° NNW 23:20:46 76° N 23:20:46 76° N
Cosmos 2360 Rocket 3.8 23:18:54 21° WSW 23:21:34 31° WNW 23:26:31 10° N
NOSS 3-2 (A) 4.4 23:14:21 10° NNW 23:21:43 51° NE 23:21:55 51° ENE
Cosmos 2333 Rocket 4.1 23:27:12 20° NE 23:27:12 20° NE 23:28:52 10° NNE
Nadezhda 1 Rocket 4.4 23:22:56 10° N 23:28:01 60° NNW 23:28:01 60° NNW
Atlas Centaur 2 4.4 23:27:24 10° W 23:29:42 19° WSW 23:29:42 19° WSW
ATLAS 3B R/B 3.4 23:39:18 10° NW 23:44:10 44° WNW 23:44:10 44° WNW
Cosmos 2237 Rocket 4.3 23:53:45 19° NNE 23:53:45 19° NNE 23:55:14 10° NNE
